North Windham, CT

11:57 PM EDT on September 25, 2016 (GMT -0400)
Windham

Weather History for KIJD - May, 2013

Change the Weather History Date:

Thursday, May 9, 2013

  Actual Average Record
Temperature  
Mean Temperature 60 °F -  
Max Temperature 66 °F 63 °F 91 °F (2000)
Min Temperature 53 °F 40 °F 22 °F (1956)
Degree Days  
Heating Degree Days 6    
Growing Degree Days 10 (Base 50)    
Moisture  
Dew Point 56 °F    
Average Humidity 92    
Maximum Humidity 100    
Minimum Humidity 73    
Precipitation  
Precipitation 0.13 in - - ()
Sea Level Pressure  
Sea Level Pressure 29.95 in    
Wind  
Wind Speed 1 mph (ESE)    
Max Wind Speed 9 mph    
Max Gust Speed -    
Visibility 6 miles    
Events Fog , Rain , Thunderstorm    
Averages and records for this station are not official NWS values.
T = Trace of Precipitation, MM = Missing Value Source: NWS Daily Summary

Daily Weather History Graph

Daily Weather History Graph

Search for Another Location

Airport or City:

Trip Planner

Search our weather history database for the weather conditions in past years. The results will help you decide how hot, cold, wet, or windy it might be!

Date:

Astronomy

May. 09, 2013 Rise Set
Actual Time 5:35 AM EDT 7:55 PM EDT
Civil Twilight 5:04 AM EDT 8:27 PM EDT
Nautical Twilight 4:25 AM EDT 9:05 PM EDT
Astronomical Twilight 3:42 AM EDT 9:48 PM EDT
Moon 5:18 AM EDT (5/9) 7:48 PM EDT (5/9)
Length of Visible Light 15h 23m
Length of Day
14h 20m
Waning Crescent, 0% of the Moon is Illuminated
May 9
Waning Crescent
May 9
New
May 18
First Quarter
May 25
Full
May 31
Last Quarter

Hourly Weather History & Observations

Time (EDT) Temp. Dew Point Humidity Pressure Visibility Wind Dir Wind Speed Gust Speed Precip Events Conditions
12:52 AM 59.0 °F 57.9 °F 96% 30.04 in 3.0 mi Calm Calm - N/A   Overcast
1:22 AM 59.0 °F 57.2 °F 94% 30.03 in 9.0 mi Calm Calm - N/A   Overcast
1:52 AM 57.9 °F 57.0 °F 97% 30.02 in 7.0 mi Calm Calm - N/A   Overcast
2:52 AM 57.9 °F 55.0 °F 90% 30.00 in 10.0 mi Calm Calm - N/A   Overcast
3:22 AM 55.4 °F 55.4 °F 100% 29.98 in 1.5 mi Calm Calm - N/A   Mostly Cloudy
3:30 AM 55.4 °F 55.4 °F 100% 29.99 in 0.5 mi Calm Calm - N/A Fog Fog
3:35 AM 55.4 °F 55.4 °F 100% 29.99 in 2.0 mi South 3.5 mph - N/A   Mostly Cloudy
3:42 AM 55.4 °F 55.4 °F 100% 30.00 in 9.0 mi Calm Calm - N/A   Overcast
3:52 AM 55.9 °F 55.0 °F 97% 29.99 in 9.0 mi ENE 3.5 mph - N/A   Overcast
4:39 AM 55.4 °F 53.6 °F 94% 29.99 in 2.0 mi Calm Calm - N/A   Overcast
4:49 AM 55.4 °F 53.6 °F 94% 29.98 in 8.0 mi NE 3.5 mph - N/A   Overcast
4:52 AM 54.0 °F 54.0 °F 100% 29.98 in 8.0 mi Calm Calm - N/A   Overcast
5:22 AM 53.6 °F 53.6 °F 100% 29.98 in 2.0 mi East 3.5 mph - N/A   Mostly Cloudy
5:25 AM 53.6 °F 53.6 °F 100% 29.98 in 0.8 mi Calm Calm - N/A   Mostly Cloudy
5:36 AM 53.6 °F 53.6 °F 100% 29.98 in 0.2 mi ENE 3.5 mph - N/A Fog Fog
5:52 AM 54.0 °F 54.0 °F 100% 29.99 in 0.2 mi Calm Calm - N/A Fog Fog
6:52 AM 54.0 °F 54.0 °F 100% 29.99 in 0.2 mi Calm Calm - N/A Fog Fog
7:02 AM 53.6 °F 53.6 °F 100% 29.99 in 0.5 mi NE 3.5 mph - N/A Fog Fog
7:30 AM 55.4 °F 53.6 °F 94% 29.99 in 2.0 mi ENE 3.5 mph - N/A   Overcast
7:39 AM 55.4 °F 53.6 °F 94% 29.99 in 8.0 mi ENE 3.5 mph - N/A   Overcast
7:49 AM 55.4 °F 53.6 °F 94% 29.99 in 1.8 mi Calm Calm - N/A   Overcast
7:52 AM 55.0 °F 55.0 °F 100% 29.99 in 1.5 mi ENE 4.6 mph - N/A   Overcast
7:58 AM 55.4 °F 53.6 °F 94% 30.00 in 3.0 mi East 3.5 mph - N/A   Overcast
8:52 AM 57.0 °F 55.0 °F 93% 30.00 in 10.0 mi Calm Calm - N/A   Overcast
9:52 AM 57.0 °F 55.9 °F 96% 29.99 in 4.0 mi WSW 3.5 mph - 0.03 in Rain Light Rain
10:13 AM 57.2 °F 55.4 °F 94% 29.98 in 5.0 mi Calm Calm - 0.02 in Rain Light Rain
10:52 AM 59.0 °F 55.9 °F 90% 29.97 in 10.0 mi ENE 4.6 mph - 0.05 in Rain Light Rain
11:52 AM 61.0 °F 55.9 °F 83% 29.97 in 10.0 mi SE 3.5 mph - 0.00 in   Scattered Clouds
12:00 PM 62.6 °F 55.4 °F 77% 29.97 in 10.0 mi Variable 4.6 mph - N/A   Mostly Cloudy
12:10 PM 62.6 °F 57.2 °F 82% 29.96 in 10.0 mi Variable 3.5 mph - N/A   Mostly Cloudy
12:40 PM 64.4 °F 57.2 °F 77% 29.96 in 10.0 mi Calm Calm - N/A   Overcast
12:52 PM 66.0 °F 57.0 °F 73% 29.95 in 10.0 mi SSE 8.1 mph - N/A   Mostly Cloudy
2:00 PM 64.4 °F 57.2 °F 77% 29.93 in 10.0 mi Calm Calm - 0.00 in Rain Light Rain
2:52 PM 64.9 °F 57.0 °F 75% 29.91 in 8.0 mi East 4.6 mph - 0.00 in Rain Light Rain
3:25 PM 64.4 °F 59.0 °F 83% 29.91 in 6.0 mi SSE 3.5 mph - 0.03 in Rain , Thunderstorm Rain
3:31 PM 62.6 °F 59.0 °F 88% 29.90 in 2.5 mi Calm Calm - 0.06 in Rain , Thunderstorm Thunderstorms and Rain
3:41 PM 62.6 °F 59.0 °F 88% 29.90 in 4.0 mi Calm Calm - 0.08 in Rain , Thunderstorm Light Thunderstorms and Rain
3:44 PM 62.6 °F 59.0 °F 88% 29.90 in 1.5 mi Calm Calm - 0.15 in Rain , Thunderstorm Heavy Rain
3:48 PM 62.6 °F 60.8 °F 94% 29.90 in 0.8 mi Calm Calm - 0.20 in Rain , Thunderstorm Heavy Rain
3:56 PM 62.6 °F 60.8 °F 94% 29.90 in 3.0 mi SW 9.2 mph - 0.01 in Rain , Thunderstorm Light Rain
3:58 PM 60.8 °F 59.0 °F 94% 29.90 in 2.5 mi SW 8.1 mph - 0.04 in Rain , Thunderstorm Light Rain
4:07 PM 60.8 °F 57.2 °F 88% 29.89 in 4.0 mi WNW 3.5 mph - 0.05 in Rain , Thunderstorm Light Thunderstorms and Rain
4:40 PM 60.8 °F 57.2 °F 88% 29.88 in 10.0 mi Calm Calm - 0.05 in   Overcast
4:52 PM 61.0 °F 57.9 °F 90% 29.88 in 10.0 mi Calm Calm - 0.05 in   Scattered Clouds
5:15 PM 62.6 °F 57.2 °F 82% 29.87 in 10.0 mi Calm Calm - N/A   Partly Cloudy
5:52 PM 62.1 °F 59.0 °F 90% 29.87 in 10.0 mi Calm Calm - N/A   Clear
6:44 PM 60.8 °F 57.2 °F 88% 29.88 in 10.0 mi West 3.5 mph - N/A   Mostly Cloudy
6:52 PM 61.0 °F 57.9 °F 90% 29.88 in 10.0 mi Calm Calm - N/A   Mostly Cloudy
7:30 PM 60.8 °F 57.2 °F 88% 29.89 in 10.0 mi Calm Calm - N/A   Partly Cloudy
8:52 PM 57.9 °F 57.0 °F 97% 29.91 in 10.0 mi Calm Calm - N/A   Mostly Cloudy
10:42 PM 57.2 °F 55.4 °F 94% 29.92 in 8.0 mi Calm Calm - N/A   Scattered Clouds
10:52 PM 57.0 °F 55.9 °F 96% 29.93 in 9.0 mi Calm Calm - N/A   Mostly Cloudy
11:41 PM 55.4 °F 55.4 °F 100% 29.93 in 5.0 mi Calm Calm - N/A   Scattered Clouds
11:46 PM 55.4 °F 55.4 °F 100% 29.93 in 2.5 mi SSW 3.5 mph - N/A   Mostly Cloudy
11:52 PM 55.0 °F 55.0 °F 100% 29.93 in 0.8 mi SSW 3.5 mph - N/A   Mist